Home   Weather   Haywards Heath   Past weeks

Flag for United Kingdom Past Weather in Haywards Heath, England, United Kingdom — Yesterday and Last 2 Weeks

Now
55 °F

Passing clouds.


Feels Like: 54 °F
Forecast: 36 / 51 °F
Wind: 6 mph from West

Location: London / Gatwick Airport

Current Time: Apr 24, 2017 at 10:51:42 am

Latest Report: Apr 24, 2017 at 10:20 am


Visibility: N/A

Pressure: 30.04 "Hg

Humidity: 67%

Dew Point: 45 °F

Location of Haywards HeathLocation

Past Weather in Haywards Heath — Graph

°F

Haywards Heath Temperature Yesterday

Maximum temperature yesterday: 55 °F (at 11:50 am)
Minimum temperature yesterday: 39 °F (at 2:50 am)
Average temperature yesterday: 49 °F

High & Low Weather Summary for the Past Weeks

 TemperatureHumidityPressure
High72 °F (Apr 9, 12:50 pm)100% (Apr 18, 2:50 am)30.63 "Hg (Apr 18, 2:50 am)
Low34 °F (Apr 19, 4:20 am)31% (Apr 18, 4:20 pm)29.98 "Hg (Apr 14, 6:20 pm)
Average51 °F66%30.27 "Hg
* Reported Apr 9 9:20 am — Apr 24 9:20 am, Haywards Heath, Weather by CustomWeather, © 2017

Note: Actual official high and low records may vary slightly from our data, if they occured in-between our weather recording intervals... More about our weather records

Advertising

Haywards Heath Weather History for the Previous 24 Hours

Scroll right to see more
 ConditionsComfort  
Time TempWeatherWind HumidityBarometerVisibility
9:20 am
Mon, Apr 24
52 °FSunny.3 mph77%30.04 "Hg10 mi
8:50 am52 °FSunny.3 mph72%30.04 "Hg10 mi
8:20 am48 °FSunny.5 mph87%30.07 "Hg10 mi
7:50 am48 °FSunny.5 mph87%30.07 "Hg10 mi
7:20 am48 °FScattered clouds.3 mph87%30.07 "Hg6 mi
6:50 am48 °FPartly sunny.5 mph87%30.07 "HgN/A
6:20 am48 °FPartly sunny.5 mph87%30.07 "Hg3 mi
5:50 am46 °FPartly sunny.3 mph93%30.07 "Hg2 mi
5:20 am48 °FHaze.3 mph87%30.07 "Hg2 mi
4:50 am48 °FHaze.5 mph94%30.09 "Hg2 mi
4:20 am48 °FHaze.3 mph94%30.09 "Hg1 mi
3:50 am46 °FPassing clouds.2 mph100%30.09 "Hg1 mi
3:20 am46 °FHaze.3 mph100%30.12 "Hg1 mi
2:50 am48 °FHaze.3 mph94%30.12 "Hg1 mi
2:20 am46 °FHaze.3 mph93%30.12 "Hg2 mi
1:50 am46 °FPassing clouds.3 mph93%30.15 "Hg2 mi
1:20 am46 °FPassing clouds.3 mph93%30.15 "Hg2 mi
12:50 am46 °FFog.3 mph87%30.15 "Hg3 mi
12:20 am45 °FClear.3 mph93%30.18 "Hg4 mi
11:50 pm
Sun, Apr 23
45 °FClear.2 mph93%30.18 "Hg4 mi
11:20 pm46 °FClear.2 mph87%30.18 "Hg4 mi
10:50 pm46 °FClear.5 mph87%30.18 "Hg4 mi
10:20 pm46 °FClear.3 mph87%30.21 "Hg4 mi
9:50 pm46 °FClear.5 mph87%30.21 "Hg4 mi
9:20 pm48 °FPassing clouds.5 mph82%30.21 "HgN/A
8:50 pm48 °FPassing clouds.5 mph82%30.21 "HgN/A
8:20 pm50 °FClear.6 mph76%30.21 "Hg10 mi
7:50 pm52 °FPassing clouds.7 mph72%30.21 "HgN/A
7:20 pm52 °FPassing clouds.8 mph72%30.21 "HgN/A
6:50 pm54 °FPassing clouds.7 mph67%30.21 "HgN/A
6:20 pm55 °FPassing clouds.8 mph67%30.24 "HgN/A
5:50 pm54 °FPassing clouds.9 mph67%30.24 "HgN/A
5:20 pm55 °FPassing clouds.10 mph67%30.24 "HgN/A
4:50 pm55 °FScattered clouds.10 mph67%30.24 "HgN/A
4:20 pm55 °FScattered clouds.8 mph67%30.24 "HgN/A
3:50 pm55 °FScattered clouds.8 mph67%30.27 "HgN/A
3:20 pm55 °FScattered clouds.10 mph63%30.27 "HgN/A
2:50 pm55 °FScattered clouds.9 mph63%30.27 "HgN/A
2:20 pm55 °FPartly sunny.8 mph63%30.27 "HgN/A
1:50 pm54 °FPartly sunny.8 mph63%30.30 "HgN/A
1:20 pm55 °FBroken clouds.9 mph59%30.30 "HgN/A
12:50 pm54 °FScattered clouds.7 mph63%30.30 "HgN/A
12:20 pm55 °FScattered clouds.8 mph59%30.30 "HgN/A
11:50 am55 °FPartly sunny.6 mph59%30.33 "HgN/A
11:20 am54 °FPartly sunny.7 mph63%30.33 "HgN/A
10:50 am54 °FScattered clouds.7 mph63%30.33 "HgN/A
10:20 am52 °FBroken clouds.7 mph67%30.33 "HgN/A
Weather by CustomWeather, © 2017

See weather overviewHow to use our weather pages